Wind_Speed
28 28 28 28 28 28 28 27 25 25 23 21 22 21 20 20 21 19 19 18 17 16 16 16 16 16 16 16 16 15 16 16 15 15 15 13 13 12 12 12 12 11 10 10 9 8 9 12 13 14 14 14 15 15 13 12 12 12 11 11 11 12 13 13 13 11 10 10 11 10 10 10 9 7 8 9 10 11 12 13 14 14 13 12 10
28 28 28 28 28 28 28 27 26 25 24 22 22 21 19 19 19 20 20 18 16 16 15 14 14 14 14 14 14 14 15 15 14 13 13 13 13 12 12 12 12 10 8 7 7 8 9 11 13 15 15 15 16 16 15 13 11 11 10 10 11 12 13 13 13 13 12 10 11 11 11 12 11 9 9 10 11 13 14 15 16 16 15 14 13
27 27 27 28 28 27 27 27 26 24 23 23 22 21 20 18 17 19 20 18 16 16 16 14 13 13 13 12 11 12 14 13 12 11 10 11 12 11 11 11 10 9 9 10 10 11 12 12 13 15 15 15 16 17 16 14 13 12 12 11 10 11 12 12 12 13 13 12 11 12 14 15 13 10 10 11 12 13 14 15 16 16 16 15 13
27 27 27 27 27 27 27 26 26 25 24 23 23 21 20 19 18 18 18 17 17 17 16 14 13 13 14 13 11 10 12 13 12 10 10 11 12 11 10 10 10 11 13 14 14 13 12 12 14 16 16 15 15 16 15 14 14 14 14 12 11 10 11 13 14 14 14 13 12 12 14 15 13 11 11 11 11 12 13 15 16 16 15 14 13
27 27 27 27 27 27 27 26 26 26 25 24 24 21 21 21 20 20 19 18 17 17 16 15 14 14 14 14 14 13 12 13 13 12 12 14 14 12 12 11 12 13 15 14 14 13 13 12 13 15 16 16 16 17 16 16 16 15 15 14 12 10 10 13 15 15 15 15 14 14 14 14 13 12 11 12 12 11 12 14 15 16 15 14 14
27 27 27 27 28 28 27 25 25 26 26 25 24 23 22 22 21 21 21 20 19 19 18 16 16 15 14 14 15 16 14 14 14 14 14 15 16 15 14 13 14 15 15 14 14 14 13 12 12 13 15 16 18 18 17 17 17 16 16 15 13 10 10 12 15 15 16 15 15 14 13 13 13 12 12 12 11 10 11 12 13 15 15 15 15
26 27 26 26 27 28 28 26 23 23 24 24 25 24 22 21 21 21 20 19 20 21 21 20 19 18 16 15 15 17 16 16 16 15 14 15 17 17 16 15 16 17 16 16 16 16 15 15 14 14 15 16 17 17 17 16 16 15 15 14 12 10 10 12 13 13 14 15 14 12 11 11 12 12 12 12 11 10 10 10 11 13 13 14 13
25 25 26 26 25 27 29 27 24 21 20 20 22 25 24 21 21 22 21 19 19 20 21 21 20 20 19 17 16 18 19 20 19 17 15 16 18 18 18 19 20 19 18 18 18 18 17 17 16 16 16 16 16 16 15 15 15 15 14 14 13 11 11 12 13 14 14 14 12 11 11 12 12 11 11 11 10 9 9 9 9 9 10 11 11
25 25 27 28 27 26 27 28 25 21 20 18 18 22 25 23 21 21 22 22 21 20 20 20 20 22 22 20 18 19 20 22 23 22 22 22 20 19 18 19 21 22 21 21 20 18 17 16 16 16 16 16 16 16 15 15 15 13 12 12 13 13 12 13 14 14 14 14 13 13 13 13 12 12 11 10 10 9 9 9 8 8 8 9 10
27 26 27 29 29 26 25 27 27 24 22 21 18 20 23 25 24 22 22 22 23 23 22 21 21 21 22 21 20 20 20 22 24 24 25 23 19 17 17 17 18 20 21 21 19 17 17 17 17 17 16 15 15 15 15 15 14 12 11 12 13 13 13 14 15 14 14 14 14 14 14 14 13 12 11 11 10 9 9 9 9 8 8 9 11
29 28 27 28 30 29 26 27 29 27 25 24 23 22 23 24 25 25 23 23 24 25 25 24 23 21 21 21 21 21 20 19 20 20 21 21 18 17 18 19 17 17 18 18 18 17 17 18 17 17 16 15 15 14 13 13 13 14 14 14 15 15 13 13 14 14 14 14 14 13 13 13 13 12 12 12 11 9 9 9 9 9 10 12 12
30 29 29 29 31 32 29 29 30 30 28 27 27 26 25 24 24 24 25 24 23 24 25 26 24 23 22 20 20 21 21 20 19 18 20 20 19 19 20 20 19 18 18 17 17 17 16 16 16 16 15 15 15 15 14 14 14 15 15 16 16 15 14 13 14 14 13 13 13 13 13 13 13 13 13 12 11 9 9 10 11 12 13 14 14
31 30 29 31 33 33 31 30 31 32 31 28 28 28 27 26 25 24 23 22 20 21 24 25 24 24 22 20 19 20 22 22 21 21 22 22 21 20 21 21 21 20 19 18 17 16 16 16 16 15 14 14 14 14 14 14 15 14 14 15 16 16 15 14 14 14 14 14 14 14 14 14 14 14 13 12 11 10 11 12 14 14 15 15 16
32 31 31 33 34 34 33 31 31 32 33 30 29 29 28 27 26 25 24 22 19 19 21 23 24 24 23 21 21 22 24 24 24 23 24 24 24 23 22 22 21 20 18 17 16 16 16 16 16 15 14 14 14 14 14 14 15 14 15 17 18 18 17 16 14 14 14 13 14 15 14 14 14 14 13 13 13 14 14 15 15 15 15 16 16
32 32 33 35 35 35 35 33 32 32 33 32 30 29 28 26 25 25 25 24 23 22 22 22 23 23 23 23 23 24 25 25 25 24 24 25 26 24 23 23 21 20 18 17 16 16 16 16 16 16 15 14 14 15 15 16 17 16 17 18 19 18 18 17 15 15 14 14 14 14 14 14 14 14 14 15 15 16 16 17 17 17 17 17 16
34 35 36 36 36 36 36 35 33 32 33 34 32 30 29 27 25 24 25 25 26 26 26 26 25 24 24 24 25 25 25 24 23 22 23 24 25 24 24 23 22 21 20 18 17 17 16 17 17 16 15 15 15 16 16 16 18 19 18 18 18 18 18 17 15 15 14 14 14 14 14 15 15 15 16 16 16 16 15 16 17 17 17 16 14
32 34 36 36 36 37 37 36 34 33 33 31 28 26 25 25 25 25 24 25 25 26 26 27 26 25 25 25 25 24 23 22 21 21 22 23 24 24 22 21 21 20 20 18 17 17 16 16 16 16 15 15 15 16 16 16 18 20 19 17 18 19 19 16 15 14 14 14 14 14 14 14 14 15 15 16 16 14 13 14 15 14 14 14 13
27 27 29 32 35 34 32 31 31 30 27 23 21 21 22 23 24 24 23 23 23 24 24 24 23 23 23 24 24 22 21 21 21 21 22 22 23 22 20 19 19 18 17 17 16 16 16 16 16 16 15 14 13 15 16 16 17 18 17 16 16 17 17 15 14 14 14 14 14 14 13 12 12 12 14 15 14 12 11 11 12 12 12 12 11
27 25 24 29 33 31 26 26 27 26 22 19 18 20 21 22 21 21 21 22 22 22 22 22 22 23 23 24 24 23 21 21 21 21 21 21 21 20 19 19 18 17 17 17 17 17 17 17 17 16 16 14 13 14 16 17 17 17 16 15 14 15 15 15 14 14 15 15 14 13 12 11 10 9 11 12 12 12 11 11 11 12 11 10 9
26 25 23 26 28 24 22 24 25 21 18 17 18 19 20 20 20 20 21 22 22 22 22 22 22 23 24 25 25 24 22 21 21 21 21 20 19 19 19 19 18 18 18 18 18 19 19 18 17 17 16 16 14 14 16 17 17 17 16 14 13 15 15 15 15 16 16 15 14 12 11 9 7 7 8 9 10 10 10 10 10 10 10 8 7
18 19 20 22 21 21 21 21 18 15 14 16 17 17 17 16 16 17 18 19 19 20 20 20 21 23 24 25 24 23 22 21 21 20 20 19 18 18 18 18 18 18 18 19 19 19 18 17 16 16 17 17 17 17 17 17 18 18 17 14 14 16 17 17 18 17 14 12 11 9 7 6 5 6 6 7 8 8 7 6 7 7 6 6 5
7 9 13 16 18 20 18 15 13 13 14 16 16 15 13 13 13 14 15 16 15 15 16 19 23 24 25 25 25 23 21 20 20 19 19 18 18 17 17 17 17 17 18 18 19 18 17 17 16 16 16 17 19 19 19 19 19 18 16 15 15 16 16 16 17 15 10 8 6 5 3 4 4 5 6 8 8 6 4 4 4 3 2 1 1
6 8 11 13 13 14 12 10 10 11 13 14 14 12 12 12 12 13 13 13 13 14 15 19 24 26 27 26 24 21 19 18 17 17 17 17 16 16 17 17 17 17 16 17 17 17 16 16 16 15 16 17 19 20 19 18 19 16 13 14 15 13 10 10 12 11 7 5 4 2 2 3 4 5 8 8 5 4 4 4 5 5 4 2 1
9 10 11 11 10 10 9 8 8 9 10 11 11 11 11 12 12 12 12 11 12 13 16 20 24 28 29 26 21 18 16 15 15 15 15 16 16 17 17 17 16 16 15 14 15 15 15 15 15 16 17 17 18 20 16 13 13 12 9 9 8 5 2 6 8 7 5 4 2 1 2 3 5 6 6 2 2 5 7 8 8 7 5 4 3
8 8 8 9 8 7 7 7 7 8 8 8 9 10 11 10 10 9 9 8 7 9 13 20 22 24 26 21 18 18 17 15 14 14 14 16 16 15 14 14 13 13 12 12 13 13 13 14 14 15 15 14 14 14 10 6 6 6 5 3 1 1 4 5 4 4 3 3 1 2 2 3 3 2 0 2 3 5 7 9 11 9 6 5 4
7 7 8 8 8 7 7 6 6 6 6 5 5 6 6 5 5 3 3 4 4 7 7 15 18 18 20 18 16 15 14 12 11 9 8 11 11 10 10 11 11 12 12 12 13 13 13 13 13 12 11 9 7 4 1 1 2 1 1 1 1 2 2 2 3 3 3 2 2 2 1 1 1 2 2 2 1 1 5 10 12 10 6 4 4
5 7 8 8 8 7 6 6 5 5 5 4 4 4 4 3 3 1 1 1 2 5 3 9 11 10 11 11 9 8 7 7 7 6 7 9 9 9 10 11 12 12 13 13 13 12 11 9 9 8 6 4 1 4 6 5 4 3 3 3 1 1 1 2 2 2 1 1 1 2 4 4 2 2 1 1 2 4 8 11 11 10 7 4 3
4 7 8 7 7 7 7 7 6 6 6 6 6 7 7 5 5 4 3 4 5 4 5 6 6 5 5 5 5 5 6 6 6 6 8 8 9 9 9 9 10 10 10 10 9 8 7 5 4 4 3 4 7 10 10 8 6 5 5 4 3 3 4 3 2 2 2 2 2 3 3 2 2 2 3 4 6 9 12 13 13 11 9 6 5
4 6 6 5 6 7 8 8 8 8 8 8 9 9 9 7 6 5 5 5 5 5 4 3 3 2 3 3 4 4 4 5 5 6 6 6 6 5 5 5 6 7 7 6 6 5 5 4 5 6 7 9 12 12 11 9 8 7 7 6 5 5 5 5 4 3 2 2 1 1 0 1 2 3 5 7 10 13 14 15 14 13 11 10 9
8 8 7 7 8 9 9 10 10 10 10 10 10 10 10 9 7 7 8 8 8 7 5 4 3 3 3 3 4 5 5 5 5 5 5 5 4 3 2 2 2 3 5 6 6 6 7 7 8 8 9 10 12 12 11 10 9 7 7 6 5 4 4 3 3 3 1 2 2 2 3 4 4 5 7 9 11 13 14 14 13 12 12 12 12
16 16 15 16 15 15 15 15 15 16 15 14 13 13 13 12 11 11 12 12 11 10 9 7 7 7 7 6 6 6 6 6 6 5 5 5 5 5 4 4 4 5 7 9 10 9 8 8 9 9 9 10 11 11 10 9 8 6 5 5 5 4 2 1 1 2 4 5 4 4 4 5 6 7 8 10 11 12 13 12 12 12 12 12 13
21 22 22 22 21 20 20 20 20 20 19 18 17 16 15 15 15 14 14 14 13 12 11 10 9 9 8 8 7 7 6 6 5 5 5 5 4 4 4 4 5 6 9 10 10 9 8 9 10 11 12 11 10 10 10 9 7 5 5 6 8 8 5 3 0 3 5 7 6 5 6 7 7 8 8 10 11 12 12 11 10 10 11 11 12
20 21 21 21 22 22 22 22 22 21 20 19 19 18 17 16 16 15 14 13 13 12 11 10 9 9 8 8 7 7 6 6 5 5 5 4 4 4 4 5 6 8 10 11 10 9 8 9 10 11 11 11 9 8 7 6 6 8 9 10 11 10 7 4 2 3 5 7 7 6 7 7 8 8 10 12 12 11 9 9 9 9 10 11 12
17 17 18 19 19 19 20 21 22 22 21 20 19 19 19 19 18 16 15 14 13 12 11 11 10 10 10 10 9 9 9 9 8 7 6 5 5 5 6 8 10 11 11 10 8 7 7 6 7 7 7 6 6 6 7 7 9 11 12 13 13 11 7 5 4 4 5 7 7 7 7 8 8 10 12 12 10 9 9 9 10 10 11 13 14
15 14 13 14 15 16 17 18 19 20 19 18 17 17 18 18 19 18 17 16 15 13 12 12 11 11 11 10 10 10 10 9 9 9 8 7 6 6 8 10 12 13 11 9 7 5 4 3 3 4 3 4 5 7 8 8 10 11 13 14 13 10 8 6 5 6 7 8 9 10 10 10 11 12 11 9 9 9 10 10 11 12 13 14 15
15 13 11 10 11 12 12 14 15 15 15 15 14 14 15 16 17 18 17 17 17 15 13 12 11 10 10 9 9 8 7 7 6 7 7 7 6 6 8 11 13 12 10 7 5 4 3 2 2 1 1 1 3 6 7 7 8 10 12 12 11 8 7 6 6 7 8 10 11 12 12 12 12 11 10 9 10 11 12 13 13 14 14 15 14
15 16 15 13 12 10 10 11 13 13 13 13 12 11 13 15 16 17 17 17 17 17 16 14 13 11 10 9 9 8 7 6 5 5 5 5 5 5 8 11 12 12 9 7 5 3 1 1 1 1 2 1 2 3 4 5 7 8 9 8 7 6 6 5 6 7 9 11 12 12 12 11 10 9 9 10 12 13 13 14 14 14 14 14 13
11 14 16 16 15 14 13 12 13 12 12 11 10 9 10 12 14 14 14 14 15 16 16 16 15 14 13 12 11 10 9 8 7 6 4 4 4 5 7 8 9 9 7 6 4 3 2 1 1 2 3 3 2 3 3 4 5 6 7 7 6 5 5 5 6 9 11 12 11 10 9 9 9 9 10 11 12 13 14 14 14 14 14 13 12
8 10 11 12 12 12 11 10 10 10 9 9 9 8 8 8 9 10 10 10 10 11 13 13 13 13 13 13 12 12 11 10 9 7 6 6 6 5 4 4 5 6 5 5 4 4 4 4 4 4 4 5 5 5 6 6 6 6 5 5 5 4 4 6 8 10 11 10 9 8 9 9 10 11 12 14 14 15 15 15 14 14 13 12 12
7 8 7 6 7 8 9 8 7 6 6 6 6 6 6 5 5 5 6 7 7 7 7 7 8 8 9 9 10 10 10 9 8 7 7 7 8 7 5 3 1 2 3 4 4 4 5 5 5 5 5 5 5 6 6 6 6 5 5 6 5 6 7 9 10 10 9 8 8 8 9 10 12 13 14 15 15 15 15 15 15 14 12 11 11
6 7 7 5 4 5 5 5 5 5 6 6 5 4 4 4 3 3 3 3 3 3 3 3 3 4 4 5 5 6 6 6 6 5 4 4 5 5 5 4 4 3 3 3 4 5 7 7 7 8 8 8 8 8 8 8 8 8 8 8 8 9 9 10 9 8 7 8 9 10 11 13 14 14 15 15 16 16 16 15 14 13 12 12 12
6 7 8 6 4 3 2 2 2 3 3 3 3 2 3 3 3 2 1 2 2 2 3 3 3 3 2 1 1 1 2 3 3 3 2 1 1 1 1 1 2 3 4 4 4 5 6 8 9 9 9 10 10 10 10 10 9 9 8 9 8 8 7 7 7 8 8 10 11 13 14 14 15 15 15 16 16 15 15 14 13 14 14 15 15
7 7 7 7 6 5 3 3 3 3 3 3 2 2 3 4 4 3 2 2 2 3 4 5 5 5 4 3 2 1 1 1 2 2 1 1 2 3 2 1 1 3 4 4 4 5 5 5 6 7 7 8 9 9 9 7 6 5 5 6 5 5 5 7 8 9 11 12 13 14 14 15 15 15 15 15 15 14 14 15 15 16 16 16 15
8 7 6 7 7 6 5 4 4 5 4 3 2 3 4 4 4 4 4 3 3 3 3 4 4 4 4 4 4 3 2 3 2 1 0 2 4 5 5 3 3 5 6 6 7 8 8 7 7 7 7 7 8 9 8 6 3 2 3 5 5 6 7 8 10 11 13 13 13 13 13 13 13 13 14 15 15 16 16 16 17 16 15 15 15
10 8 7 7 7 7 7 6 5 5 4 4 4 4 4 3 3 3 3 4 4 3 3 2 1 1 1 0 0 1 2 3 3 3 2 2 2 4 5 5 5 6 7 9 10 10 11 11 10 10 10 10 10 10 10 7 3 2 3 5 5 6 7 9 10 11 12 11 11 10 10 11 12 14 15 16 16 16 16 15 15 15 14 14 15
11 9 8 7 7 8 8 7 6 6 6 6 6 5 3 3 3 3 3 3 4 4 5 4 2 1 2 3 3 2 3 4 5 5 4 4 3 2 3 4 4 4 6 9 10 11 12 13 13 12 12 13 13 13 12 9 5 2 2 2 4 6 7 8 9 10 10 10 10 11 11 12 14 17 19 19 18 16 15 14 14 14 14 15 16
10 9 8 7 7 7 7 7 7 7 7 7 7 7 5 4 4 4 4 4 5 4 4 4 3 3 4 4 4 4 4 4 6 6 6 6 5 3 3 3 4 5 6 8 10 11 12 13 14 14 14 15 15 15 14 11 6 4 3 3 6 9 10 10 10 10 11 11 12 13 15 17 19 20 19 18 17 16 14 14 14 14 14 15 15
10 9 8 8 7 7 7 6 7 7 7 6 7 7 6 5 5 5 4 4 4 5 4 4 3 3 3 3 4 4 4 4 5 5 5 4 4 4 5 5 6 8 9 10 10 11 11 12 15 16 16 16 16 16 13 9 5 5 5 6 9 11 12 11 11 12 12 13 15 16 18 20 20 19 16 14 13 12 12 11 12 13 14 14 13
8 8 9 8 8 8 8 7 6 6 6 6 6 5 5 5 5 5 5 4 4 5 4 3 2 0 1 3 4 5 5 5 4 4 3 4 5 5 6 7 8 9 10 10 10 10 10 11 14 16 17 17 16 13 9 6 6 6 7 8 10 11 12 12 13 13 14 16 17 19 20 20 18 14 12 10 10 10 10 11 12 13 13 13 12
6 7 8 8 9 9 8 8 7 7 6 6 6 6 6 6 6 5 5 5 5 4 3 2 1 0 1 3 5 5 4 3 3 5 6 8 8 9 9 10 11 11 10 8 7 7 7 9 12 15 15 14 11 8 6 7 7 7 7 9 10 12 12 13 14 15 16 18 19 19 18 15 12 9 8 8 9 10 10 11 11 11 11 12 13
6 7 8 8 8 8 8 9 9 9 8 7 7 7 7 7 6 6 6 6 5 4 4 3 2 2 2 2 2 2 2 3 4 6 8 9 9 10 11 11 12 11 9 7 5 4 5 7 9 10 10 8 6 6 6 7 7 7 9 10 11 12 13 14 15 17 18 19 17 14 11 8 7 7 8 8 8 9 8 9 9 10 12 13 14
Wind_Direction
204 205 205 203 204 207 210 210 209 210 211 210 210 210 207 206 205 201 197 196 197 200 208 212 214 216 218 216 214 216 217 216 219 223 226 226 225 225 224 225 232 233 232 237 243 250 249 246 251 260 265 268 271 272 272 272 274 277 278 278 279 278 277 276 279 284 283 280 283 283 277 279 285 288 283 274 273 275 273 268 267 269 274 278 277
206 205 206 206 205 206 210 210 209 209 211 212 211 211 210 208 207 205 201 198 199 202 204 204 209 218 222 222 221 223 221 216 215 222 227 225 224 228 229 231 238 241 240 246 251 253 253 249 250 255 256 259 262 261 259 259 260 263 271 277 278 277 277 276 277 280 282 280 281 277 272 274 280 286 286 279 270 266 264 262 261 264 271 275 276
209 207 208 209 208 208 209 210 209 209 210 210 208 208 209 205 202 205 206 203 203 207 208 208 214 220 219 217 220 227 224 210 202 212 222 221 220 227 235 241 247 247 248 253 252 247 244 241 245 250 251 251 254 256 259 260 259 261 262 261 264 270 272 271 273 277 280 282 283 277 273 276 279 279 277 274 267 260 259 261 263 265 270 274 278
210 210 210 211 211 211 211 211 211 210 209 208 205 204 205 203 199 202 207 208 207 211 215 215 219 223 218 209 209 220 218 208 206 218 229 231 231 234 240 246 247 245 246 251 254 253 252 253 256 258 258 257 257 261 265 268 269 271 267 257 254 258 264 269 272 274 276 280 283 279 276 277 276 271 269 270 269 265 260 259 261 264 267 272 281
212 211 211 212 214 214 212 212 212 211 210 207 205 204 204 204 204 205 207 211 213 215 217 217 220 227 225 217 213 213 212 214 224 234 238 238 238 242 250 256 255 254 255 259 263 263 265 270 269 266 268 269 268 267 268 269 271 273 270 260 251 250 261 268 268 269 272 275 277 277 277 274 267 261 262 266 269 267 262 258 258 262 265 271 280
210 212 213 212 214 215 213 211 211 211 211 210 208 206 204 203 205 206 208 211 215 217 219 218 220 226 231 229 223 218 217 226 235 238 237 235 236 243 254 257 257 260 264 269 273 270 267 268 267 267 271 274 275 273 272 272 274 276 274 265 252 245 254 261 263 264 268 270 271 272 270 263 256 256 261 264 266 266 263 259 257 261 266 270 275
204 208 212 213 214 214 212 212 213 213 212 212 211 207 203 202 202 203 207 211 211 214 219 223 225 228 231 233 231 227 228 237 243 241 235 231 234 245 253 251 249 255 261 264 270 272 271 270 268 268 270 273 275 275 276 278 277 278 276 264 250 245 248 252 256 259 264 267 267 263 258 257 259 261 263 265 266 266 265 262 260 264 268 271 273
203 206 209 213 216 215 212 212 214 215 211 211 211 207 202 202 205 207 212 214 212 212 217 223 227 228 228 229 229 228 230 238 243 244 241 239 244 252 255 247 243 248 253 256 263 269 274 276 274 273 274 275 275 275 278 281 277 271 267 257 248 244 243 246 252 258 263 264 261 257 254 259 264 263 262 266 271 274 273 270 267 266 270 273 276
206 208 208 211 216 217 213 211 213 215 212 209 212 208 204 205 208 212 216 220 222 220 218 219 222 225 226 227 229 232 235 238 240 242 244 246 249 254 253 246 244 247 252 257 262 268 275 279 279 278 278 279 278 276 277 280 276 267 260 254 248 242 243 253 259 262 263 261 261 261 259 259 260 259 261 269 276 280 279 272 268 270 277 282 285
208 209 208 209 215 217 214 210 211 215 214 209 209 209 207 210 215 218 219 221 226 226 222 220 219 221 224 227 232 238 241 241 240 240 241 241 243 247 251 254 255 255 255 258 264 269 275 278 278 278 278 280 281 280 278 279 274 262 253 251 249 248 254 265 267 266 266 266 267 266 261 256 255 257 265 274 283 289 284 274 270 276 287 294 298
209 211 209 207 211 215 213 208 207 212 214 211 211 211 209 212 219 222 222 223 228 228 225 222 222 223 227 232 239 244 246 245 242 240 238 234 233 239 248 258 262 261 259 259 263 269 274 276 276 276 276 276 277 278 280 278 266 253 247 246 247 248 254 262 266 266 268 270 272 269 262 256 256 263 274 281 287 291 286 278 274 277 287 298 302
210 212 209 206 209 212 212 209 206 208 212 212 212 214 212 214 219 222 222 225 228 227 224 224 225 228 232 238 244 248 250 251 248 244 240 236 234 237 243 251 258 262 263 263 264 268 273 276 276 276 276 274 273 274 275 271 260 251 248 247 246 247 247 249 255 259 262 265 268 266 261 262 266 273 282 285 285 284 280 276 272 273 283 295 299
210 211 209 207 210 212 213 212 209 208 210 211 212 215 215 216 221 224 224 224 224 222 222 224 227 231 235 242 248 251 253 253 251 248 244 241 239 238 240 246 254 261 263 264 265 267 270 273 273 273 273 274 276 275 271 266 259 254 252 252 251 249 246 246 251 256 258 260 263 263 263 269 275 278 281 280 276 276 276 271 266 269 280 290 293
209 211 210 209 212 214 214 215 213 211 212 211 211 213 215 217 221 225 229 229 226 222 222 225 229 232 236 243 249 254 255 254 252 248 243 241 240 240 242 248 253 258 261 264 266 266 267 269 270 270 270 273 277 277 271 262 256 252 253 254 252 250 249 250 254 256 257 259 262 264 267 272 276 277 275 273 274 279 282 277 272 277 286 288 285
210 212 212 213 215 216 215 216 215 214 215 215 215 215 216 217 219 224 230 233 234 234 232 233 235 237 241 246 250 254 256 257 256 250 243 240 240 241 245 249 251 254 259 264 266 266 267 269 270 270 269 269 274 275 270 262 255 252 253 254 253 252 252 252 252 253 256 260 262 265 269 273 275 277 277 278 282 285 284 281 281 285 285 280 276
211 212 214 216 218 218 218 218 218 218 219 219 218 217 217 218 221 225 230 234 237 239 240 242 244 246 248 250 252 253 254 255 255 250 244 241 241 243 246 249 251 253 257 262 266 266 268 270 271 270 269 267 268 269 269 267 262 259 257 257 256 253 250 249 250 254 258 263 267 269 271 275 277 279 282 286 288 286 280 276 275 276 275 273 273
213 213 214 217 219 220 217 215 216 217 217 216 217 217 217 219 224 228 232 235 237 240 242 244 247 249 250 251 252 252 252 251 250 248 246 244 242 244 246 248 251 255 258 261 263 265 267 269 271 272 271 269 268 268 268 268 267 264 261 259 257 254 251 248 250 258 262 265 269 271 271 274 277 281 289 293 291 284 273 268 269 270 271 271 269
226 223 220 220 221 219 215 212 213 215 215 217 223 225 222 222 227 230 233 235 237 238 241 244 246 249 249 250 250 249 248 247 246 246 245 243 243 244 245 246 250 255 259 260 263 266 268 270 273 274 274 274 269 265 265 267 267 264 262 260 257 254 253 252 254 260 264 264 265 264 265 269 274 286 298 298 290 282 275 273 276 277 277 275 267
235 234 230 227 224 221 218 220 222 220 218 219 225 227 223 222 226 229 232 236 238 239 242 244 247 248 247 247 246 245 245 245 246 245 243 242 244 246 246 248 252 256 260 262 265 267 269 272 274 275 277 277 272 266 266 267 263 257 253 253 254 252 252 256 260 261 261 259 257 255 257 261 269 287 298 294 289 290 289 286 283 279 275 273 263
240 236 233 231 227 220 215 217 217 214 211 213 219 222 222 225 229 231 234 237 238 240 242 242 243 244 245 245 245 244 243 243 243 243 243 244 248 250 250 252 254 256 258 262 265 266 268 271 273 274 275 276 276 272 269 266 263 259 251 246 250 255 255 260 266 265 256 247 240 239 244 253 266 281 284 285 291 297 294 287 281 273 267 264 255
237 236 233 226 212 202 206 210 207 203 204 211 219 224 225 231 238 240 242 243 243 244 244 243 243 243 243 243 242 239 239 240 239 240 242 244 245 247 249 251 254 256 258 259 261 263 266 269 273 276 278 279 279 277 272 266 262 261 257 252 253 257 261 266 267 257 238 222 218 220 232 257 279 283 282 292 305 309 305 293 280 270 264 258 248
210 217 215 205 185 183 196 200 190 192 202 208 216 222 224 230 239 244 248 250 250 251 250 248 247 244 240 239 238 234 231 233 236 237 239 240 241 242 246 249 252 256 258 260 263 266 270 274 277 278 279 280 281 280 274 264 257 255 257 258 256 256 261 264 256 241 219 204 208 216 248 281 291 296 306 317 324 331 335 324 314 316 322 292 255
128 147 167 172 167 173 185 184 179 188 196 201 208 216 222 229 235 241 248 253 258 261 259 254 250 246 239 233 229 230 231 232 236 239 240 243 246 248 250 251 253 255 257 260 265 269 272 275 279 279 280 281 282 282 276 263 257 258 259 260 261 264 262 243 227 220 208 198 204 223 297 296 295 308 316 322 337 15 31 19 17 27 35 33 16
127 134 140 144 150 162 170 172 178 188 193 199 207 215 223 231 235 240 246 252 260 263 256 249 243 234 229 225 223 228 234 233 234 241 247 251 254 253 253 253 254 256 256 257 262 267 270 275 279 280 282 284 285 285 281 267 260 265 267 267 275 286 230 174 183 197 196 182 187 309 320 295 296 305 309 321 56 61 50 37 30 28 16 357 358
132 130 130 130 133 141 149 154 164 176 187 197 201 202 210 218 225 237 243 243 266 282 258 244 235 220 214 218 223 224 225 226 232 243 254 256 253 252 252 251 249 252 254 255 258 262 265 270 274 277 282 286 284 283 284 274 261 266 273 275 273 134 136 144 162 191 192 186 248 319 307 284 295 307 172 127 99 70 51 34 25 21 11 357 360
126 125 127 123 117 119 126 134 146 161 170 176 181 184 191 200 208 239 256 241 307 336 268 228 220 206 202 211 218 215 214 220 227 239 254 252 245 240 244 246 244 245 247 248 250 253 256 261 268 274 280 284 282 278 267 158 174 175 100 71 99 146 173 189 200 202 195 211 307 348 124 158 134 121 131 151 161 41 24 21 21 23 21 4 346
124 121 119 115 114 116 120 124 129 134 132 126 127 135 136 148 161 123 50 124 63 31 93 171 180 180 184 194 202 196 194 204 215 227 243 244 238 232 235 240 241 243 245 245 246 250 254 258 263 265 266 263 206 128 126 131 131 109 80 67 85 148 166 179 197 201 199 222 40 108 133 133 110 87 60 8 342 350 358 4 9 13 13 3 329
100 105 104 107 112 115 116 118 115 104 98 96 102 118 125 128 138 141 114 112 120 101 96 118 135 144 155 171 184 188 193 203 216 227 232 232 231 231 235 240 243 245 248 249 249 248 247 245 237 223 193 139 124 125 128 130 124 107 89 88 101 105 95 93 101 126 163 174 148 139 138 110 66 38 5 354 350 350 351 352 353 355 355 352 338
98 100 99 100 104 105 104 103 100 97 99 100 103 116 130 133 128 127 118 108 116 124 118 120 143 161 178 195 195 190 196 200 203 211 218 218 222 228 236 241 243 242 239 235 229 215 197 177 157 143 132 127 129 132 135 135 129 118 106 100 95 92 87 81 80 104 144 192 195 163 124 2 1 356 345 341 340 341 340 339 339 341 342 343 342
103 99 97 97 99 103 104 103 102 103 102 102 106 117 127 129 116 101 100 100 101 107 113 124 140 141 152 177 177 169 172 179 184 193 198 195 187 178 170 173 182 188 183 169 155 149 145 138 134 132 131 135 140 142 142 142 140 131 121 115 116 118 112 93 74 76 60 341 320 320 329 329 327 328 328 325 326 328 329 329 330 333 336 339 339
99 98 97 97 98 101 104 103 101 99 96 95 100 108 113 114 107 98 94 94 94 98 103 108 115 118 120 127 136 143 147 153 158 159 153 146 138 132 130 124 118 134 143 137 131 133 135 134 137 140 142 146 148 148 149 152 151 148 143 147 160 177 192 151 66 29 3 350 336 317 308 307 306 309 312 314 318 323 327 328 328 330 332 332 331
99 97 95 94 94 96 98 98 95 94 94 92 91 94 98 102 103 100 96 94 95 97 99 101 106 108 109 112 116 121 126 129 132 130 126 127 132 130 121 113 118 133 135 129 128 131 134 140 145 146 145 148 149 153 159 165 170 186 202 199 198 209 222 226 277 345 345 342 330 309 296 296 301 308 315 320 324 327 329 330 330 329 330 329 326
98 97 95 93 91 91 91 91 89 89 91 91 88 86 87 89 91 94 94 94 93 93 92 93 94 94 93 94 94 94 95 95 97 102 109 120 138 141 130 126 134 139 135 131 131 133 135 146 153 152 151 153 158 166 181 204 227 235 233 221 214 217 221 225 265 317 334 339 333 319 310 307 309 316 322 325 328 330 331 333 333 332 330 330 329
89 91 93 93 92 91 89 88 87 87 88 88 86 84 82 81 78 79 82 84 86 87 88 88 88 88 86 84 84 84 84 83 83 84 84 90 108 126 134 139 144 145 140 134 134 138 141 151 162 168 173 182 195 211 231 243 240 233 226 217 213 218 224 234 262 295 324 337 335 324 316 310 309 315 322 326 330 333 334 335 335 333 332 332 333
76 78 81 84 86 89 89 87 87 87 85 83 82 82 81 78 73 71 72 74 75 78 83 85 87 86 85 84 83 84 85 84 81 78 77 81 92 114 135 145 150 151 147 138 133 133 137 148 169 186 206 224 229 233 238 234 223 218 216 212 211 218 229 246 273 303 324 329 323 317 312 308 308 315 325 333 336 335 334 334 333 332 334 335 336
84 86 86 85 84 85 84 83 84 86 84 82 80 79 76 74 72 71 72 71 70 70 74 78 80 81 82 83 82 82 84 83 79 78 82 87 95 116 139 150 156 160 158 150 143 140 134 130 137 125 346 264 216 219 222 215 205 204 208 212 218 231 245 264 291 309 315 315 313 310 307 306 310 319 331 339 337 333 331 332 332 333 335 337 336
94 96 96 97 97 97 93 88 87 88 86 84 80 74 71 72 74 73 73 71 70 69 70 72 72 71 73 77 78 77 77 73 74 83 96 104 114 133 148 156 165 172 174 173 175 177 172 121 90 30 13 47 158 188 200 198 195 199 209 220 233 248 262 276 291 302 307 308 307 305 304 307 316 325 331 331 329 328 328 328 328 330 333 334 330
97 101 101 102 103 103 103 101 99 97 95 95 93 84 75 74 74 72 70 69 68 68 68 67 66 65 67 70 71 71 70 70 71 78 93 109 124 144 159 166 174 181 189 204 217 221 240 277 302 318 319 309 288 263 247 236 232 230 232 237 242 248 261 278 293 303 306 304 303 305 312 322 328 327 325 325 326 327 326 325 325 329 333 332 329
107 103 103 110 113 110 109 112 114 112 110 109 107 101 91 79 72 69 67 67 67 66 64 62 60 58 60 65 67 67 68 67 66 68 82 101 109 115 140 176 195 201 209 230 248 256 263 272 276 282 289 291 289 282 272 262 255 247 239 238 244 256 274 288 296 299 299 301 309 320 328 330 326 322 323 325 326 326 324 323 324 329 332 331 329
126 115 111 116 119 114 109 110 116 117 116 112 107 104 104 100 84 73 70 73 77 77 71 67 64 58 55 57 59 61 64 65 63 64 79 98 102 90 76 74 121 224 235 249 266 273 276 278 280 278 277 275 274 271 262 250 243 237 233 238 252 268 281 288 292 296 301 312 325 329 324 319 316 317 319 321 322 322 322 323 325 328 329 327 323
151 147 144 134 116 107 103 102 106 109 110 110 105 99 106 115 110 90 71 68 73 66 50 50 62 64 63 63 57 55 58 62 66 70 79 95 100 89 70 60 53 33 356 309 283 269 265 266 270 273 274 274 271 268 261 254 250 250 255 263 273 280 285 289 293 301 313 321 320 315 310 309 309 311 312 314 317 319 322 324 325 323 320 317 313
177 177 174 166 153 145 146 156 152 135 130 135 135 122 125 132 129 114 20 336 339 342 344 344 343 349 5 44 83 77 64 58 67 82 92 97 96 77 47 47 41 19 1 339 309 284 272 271 274 276 278 278 277 274 268 263 260 261 266 273 279 284 289 296 301 306 309 308 304 302 301 301 301 302 304 308 313 317 318 317 315 311 309 308 307
189 190 186 181 178 179 187 202 208 207 203 206 208 197 185 187 193 202 230 284 303 310 315 315 310 309 306 295 277 236 146 106 96 106 137 249 254 256 256 238 258 284 289 286 280 272 268 269 275 279 283 283 280 274 266 259 257 266 276 283 289 296 301 304 305 303 301 300 297 296 296 296 297 299 304 308 311 312 311 309 307 305 303 302 302
190 186 183 185 187 186 188 198 214 222 220 220 226 222 213 210 212 213 217 229 247 275 307 323 324 316 305 294 285 264 205 165 149 139 184 258 256 256 254 243 241 252 259 263 269 271 270 267 265 266 270 271 269 266 260 250 243 265 274 270 275 283 287 288 288 288 289 292 294 295 295 296 298 301 306 309 309 308 306 304 301 299 298 298 300
199 194 189 183 178 179 183 187 195 213 229 244 246 232 220 214 212 208 211 217 223 235 249 264 341 11 24 148 201 220 191 171 152 146 172 222 246 254 255 250 246 251 260 269 274 276 273 268 265 267 271 271 269 266 262 254 251 270 261 255 263 274 276 275 275 276 279 284 287 288 290 294 300 306 310 312 311 308 304 299 295 295 297 300 305
204 203 204 198 190 191 195 195 197 206 218 227 226 223 224 225 220 213 206 200 201 220 236 239 246 253 190 155 127 122 158 173 175 186 213 237 252 257 255 256 261 267 271 273 274 271 266 261 260 263 267 267 265 263 259 256 261 277 271 276 300 306 299 286 277 272 271 274 278 282 288 297 304 309 310 310 308 304 300 296 295 297 301 306 309
202 204 209 211 209 208 210 214 220 223 223 222 224 230 240 242 231 220 215 210 210 225 240 243 241 234 209 182 164 161 180 205 218 225 235 245 250 252 258 271 283 287 286 284 282 278 271 264 262 260 258 255 252 249 248 249 258 272 277 300 321 323 315 302 287 279 277 281 286 292 298 303 307 307 305 302 299 296 294 294 296 300 306 311 312
202 204 208 212 213 215 218 222 226 227 224 221 221 224 225 224 223 224 226 228 238 252 264 270 261 238 212 193 188 188 192 203 212 213 215 222 231 246 262 275 287 293 296 294 291 285 277 266 259 254 251 248 246 243 242 247 262 272 279 301 318 320 314 304 294 290 291 294 298 302 306 308 308 306 301 294 290 288 289 293 299 306 312 314 315
203 211 218 223 224 225 224 221 218 217 217 215 212 207 203 206 216 225 229 235 244 251 260 275 284 235 124 137 163 176 182 188 195 209 237 258 273 287 297 307 312 310 306 300 291 283 272 260 253 250 248 247 246 246 255 280 295 289 291 305 313 312 307 301 297 296 298 300 305 308 309 309 306 300 290 281 279 284 291 298 304 309 314 316 320
201 213 219 223 224 225 227 225 223 223 225 224 225 223 220 218 224 231 235 238 242 244 251 268 291 54 110 135 154 167 183 210 247 275 288 296 306 313 319 323 323 319 315 311 299 284 270 257 249 246 245 244 245 256 282 300 300 295 299 305 306 305 303 300 297 298 302 306 310 311 309 306 299 287 275 273 278 286 296 303 309 315 323 327 329
211 215 216 218 220 225 232 236 234 232 230 229 228 229 227 226 231 239 244 246 245 249 262 276 279 277 277 256 219 214 238 263 278 287 293 302 311 317 320 323 322 319 318 319 312 292 271 255 244 240 239 242 252 272 288 296 299 299 301 303 302 301 300 298 299 302 305 308 310 310 307 300 289 278 275 280 290 303 317 328 334 338 341 340 338
Height
1549 1551 1552 1554 1556 1557 1558 1560 1561 1562 1564 1565 1565 1566 1567 1568 1569 1570 1572 1573 1574 1574 1575 1576 1577 1578 1579 1580 1581 1582 1583 1583 1584 1584 1585 1585 1585 1585 1586 1586 1586 1586 1587 1587 1587 1587 1587 1587 1587 1586 1586 1586 1585 1585 1585 1585 1585 1585 1585 1584 1583 1582 1582 1581 1580 1579 1579 1579 1579 1579 1579 1578 1578 1578 1577 1577 1576 1576 1576 1575 1575 1575 1575 1575 1575
1547 1549 1551 1552 1554 1555 1557 1558 1559 1561 1562 1563 1564 1565 1566 1567 1568 1569 1570 1571 1572 1573 1574 1575 1576 1577 1578 1579 1580 1581 1582 1582 1583 1583 1584 1584 1584 1584 1585 1585 1585 1586 1586 1586 1586 1586 1586 1586 1585 1584 1584 1583 1583 1583 1582 1582 1582 1582 1582 1582 1582 1581 1581 1580 1579 1578 1578 1578 1578 1578 1578 1577 1577 1576 1576 1576 1576 1575 1575 1574 1574 1574 1575 1574 1574
1546 1548 1550 1551 1552 1554 1555 1556 1558 1559 1560 1561 1562 1563 1564 1566 1567 1568 1569 1570 1571 1572 1573 1574 1575 1576 1577 1578 1578 1579 1580 1581 1581 1582 1582 1582 1583 1583 1584 1584 1584 1585 1585 1584 1584 1584 1583 1583 1582 1581 1581 1581 1581 1580 1580 1580 1580 1579 1579 1579 1580 1580 1579 1579 1579 1578 1577 1577 1576 1576 1577 1576 1576 1575 1575 1575 1574 1574 1574 1574 1574 1574 1573 1573 1573
1545 1546 1548 1550 1551 1553 1554 1555 1556 1557 1558 1559 1560 1561 1563 1564 1565 1566 1568 1569 1569 1571 1572 1573 1574 1575 1575 1576 1577 1578 1578 1579 1579 1580 1580 1581 1581 1582 1582 1583 1583 1583 1582 1581 1582 1582 1582 1582 1581 1580 1580 1580 1579 1578 1578 1578 1578 1578 1577 1577 1577 1578 1578 1578 1578 1577 1576 1575 1575 1575 1575 1575 1574 1574 1574 1574 1573 1573 1573 1573 1572 1572 1572 1572 1571
1542 1544 1546 1548 1549 1551 1552 1553 1554 1555 1556 1557 1558 1559 1561 1562 1563 1564 1566 1567 1568 1569 1570 1571 1572 1573 1574 1574 1575 1576 1576 1577 1577 1578 1578 1579 1579 1580 1581 1581 1581 1580 1579 1579 1580 1580 1580 1580 1579 1578 1578 1578 1577 1577 1577 1576 1576 1576 1576 1576 1576 1576 1576 1577 1577 1576 1576 1575 1574 1574 1574 1573 1573 1573 1573 1573 1572 1572 1572 1571 1571 1570 1570 1570 1570
1538 1541 1544 1546 1547 1549 1550 1552 1552 1553 1554 1555 1556 1558 1559 1560 1561 1562 1564 1565 1566 1567 1568 1569 1570 1571 1572 1572 1573 1574 1574 1575 1576 1576 1576 1577 1578 1578 1579 1579 1579 1578 1577 1578 1578 1578 1578 1578 1578 1578 1577 1576 1575 1575 1575 1576 1576 1576 1576 1575 1574 1574 1574 1575 1576 1576 1575 1575 1574 1573 1573 1572 1572 1572 1572 1572 1571 1571 1570 1570 1569 1569 1569 1569 1568
1534 1537 1540 1543 1545 1546 1548 1550 1551 1552 1553 1554 1555 1556 1557 1558 1559 1560 1562 1563 1564 1565 1566 1567 1568 1569 1570 1571 1572 1573 1574 1575 1575 1575 1575 1575 1576 1577 1577 1577 1576 1576 1576 1576 1576 1576 1576 1576 1576 1576 1576 1575 1575 1574 1574 1574 1574 1574 1574 1574 1574 1573 1573 1574 1574 1575 1575 1574 1574 1573 1573 1572 1572 1572 1571 1571 1570 1570 1569 1569 1568 1568 1567 1567 1567
1532 1533 1536 1540 1542 1544 1546 1548 1549 1551 1552 1553 1554 1555 1556 1557 1558 1559 1560 1561 1562 1563 1564 1565 1566 1567 1569 1570 1571 1572 1573 1574 1574 1574 1574 1575 1575 1575 1575 1575 1574 1573 1574 1574 1574 1574 1574 1574 1574 1574 1574 1574 1574 1573 1573 1573 1573 1573 1573 1573 1573 1572 1572 1573 1573 1573 1573 1573 1573 1573 1572 1572 1571 1571 1570 1570 1569 1569 1568 1568 1567 1567 1566 1566 1566
1530 1531 1533 1536 1539 1541 1544 1546 1548 1549 1550 1551 1553 1553 1554 1555 1556 1557 1558 1559 1560 1561 1561 1563 1564 1565 1567 1568 1569 1570 1571 1571 1571 1572 1572 1573 1573 1573 1573 1572 1572 1571 1571 1571 1572 1572 1573 1573 1572 1572 1572 1572 1572 1572 1572 1572 1572 1572 1572 1572 1572 1572 1572 1572 1572 1572 1572 1572 1572 1572 1571 1571 1570 1570 1569 1569 1568 1568 1567 1567 1566 1566 1566 1565 1565
1528 1530 1531 1533 1536 1539 1542 1544 1546 1547 1548 1549 1550 1551 1552 1553 1554 1555 1556 1557 1558 1558 1560 1561 1562 1563 1565 1566 1567 1567 1568 1568 1568 1568 1569 1569 1571 1571 1570 1570 1570 1569 1569 1569 1570 1570 1570 1570 1570 1570 1570 1570 1570 1570 1570 1571 1571 1571 1572 1572 1572 1572 1572 1572 1571 1571 1571 1571 1571 1571 1570 1570 1569 1569 1568 1568 1567 1567 1566 1566 1565 1565 1565 1564 1564
1526 1527 1528 1530 1534 1537 1539 1541 1542 1544 1545 1546 1547 1548 1550 1551 1552 1553 1554 1555 1555 1556 1558 1559 1560 1561 1563 1564 1564 1565 1565 1564 1564 1565 1566 1566 1568 1568 1568 1568 1568 1568 1568 1568 1568 1568 1568 1568 1568 1568 1567 1568 1568 1568 1568 1569 1569 1569 1569 1569 1569 1570 1570 1569 1569 1569 1569 1569 1569 1569 1569 1569 1568 1568 1567 1567 1566 1565 1565 1564 1564 1564 1563 1562 1562
1523 1525 1526 1528 1531 1533 1535 1537 1538 1540 1542 1543 1544 1545 1547 1548 1549 1550 1551 1552 1553 1554 1555 1557 1558 1559 1560 1561 1562 1562 1562 1562 1562 1563 1563 1564 1565 1565 1565 1565 1565 1565 1565 1565 1566 1566 1566 1566 1566 1565 1565 1565 1566 1566 1566 1566 1566 1566 1566 1566 1566 1566 1566 1566 1567 1567 1567 1567 1567 1567 1567 1567 1567 1566 1566 1565 1565 1564 1563 1563 1562 1562 1561 1560 1560
1521 1523 1524 1526 1528 1530 1532 1533 1535 1536 1538 1540 1541 1543 1544 1545 1546 1548 1549 1550 1551 1552 1553 1555 1556 1557 1558 1559 1559 1559 1560 1560 1560 1561 1561 1561 1562 1562 1562 1563 1562 1563 1563 1563 1563 1564 1564 1564 1563 1563 1564 1564 1564 1564 1564 1564 1564 1564 1564 1564 1564 1564 1564 1564 1564 1564 1565 1565 1565 1565 1565 1565 1565 1564 1564 1563 1563 1562 1562 1561 1561 1560 1559 1558 1558
1518 1520 1521 1523 1525 1527 1529 1531 1532 1534 1536 1537 1539 1540 1542 1543 1545 1546 1547 1548 1550 1550 1551 1553 1553 1555 1555 1556 1557 1557 1557 1558 1558 1559 1559 1559 1560 1560 1560 1560 1560 1561 1561 1561 1561 1561 1562 1562 1561 1562 1562 1562 1562 1562 1562 1563 1563 1563 1563 1563 1562 1562 1562 1562 1562 1562 1562 1563 1563 1563 1563 1563 1562 1562 1562 1561 1561 1561 1560 1559 1558 1558 1557 1556 1556
1515 1517 1519 1521 1522 1524 1526 1527 1529 1531 1533 1535 1537 1538 1540 1542 1543 1545 1546 1547 1548 1549 1550 1550 1551 1552 1553 1554 1554 1555 1555 1555 1556 1556 1557 1557 1558 1558 1558 1558 1558 1559 1559 1559 1559 1559 1559 1559 1559 1559 1560 1560 1560 1560 1560 1561 1561 1561 1561 1561 1560 1560 1560 1561 1561 1561 1561 1561 1561 1560 1560 1560 1560 1559 1559 1559 1559 1558 1558 1557 1556 1556 1555 1554 1554
1512 1514 1516 1518 1519 1521 1522 1524 1526 1529 1530 1532 1533 1535 1537 1539 1541 1543 1544 1545 1546 1547 1547 1548 1549 1550 1550 1551 1551 1552 1552 1553 1553 1554 1555 1555 1556 1556 1557 1557 1557 1557 1557 1557 1557 1557 1557 1557 1557 1557 1558 1558 1558 1557 1558 1558 1558 1558 1559 1558 1558 1559 1559 1560 1560 1559 1559 1559 1558 1558 1558 1558 1557 1557 1557 1557 1556 1556 1555 1554 1554 1553 1552 1551 1551
1510 1512 1514 1516 1517 1517 1518 1519 1522 1524 1525 1528 1531 1534 1536 1538 1540 1540 1541 1543 1543 1544 1545 1546 1547 1547 1548 1548 1549 1549 1550 1551 1551 1552 1553 1553 1554 1554 1555 1555 1555 1555 1556 1556 1555 1555 1555 1555 1555 1555 1556 1556 1556 1555 1555 1556 1555 1555 1555 1555 1556 1557 1558 1559 1559 1558 1558 1557 1556 1556 1556 1556 1555 1555 1555 1555 1554 1553 1553 1552 1551 1551 1550 1550 1550
1511 1511 1512 1514 1513 1513 1515 1518 1520 1521 1523 1528 1533 1535 1536 1537 1538 1538 1539 1540 1541 1542 1543 1544 1544 1545 1545 1546 1546 1547 1548 1548 1549 1550 1551 1551 1552 1552 1553 1553 1553 1554 1554 1554 1553 1553 1553 1553 1553 1554 1554 1554 1554 1553 1553 1554 1553 1552 1552 1553 1554 1555 1556 1557 1557 1557 1556 1556 1555 1554 1554 1553 1553 1553 1553 1552 1551 1551 1550 1550 1549 1549 1548 1548 1548
1511 1511 1512 1512 1511 1513 1517 1520 1520 1521 1524 1528 1531 1532 1533 1534 1535 1536 1537 1538 1539 1540 1541 1541 1542 1542 1542 1543 1543 1544 1546 1546 1547 1548 1549 1550 1551 1551 1551 1551 1551 1552 1552 1552 1552 1551 1551 1551 1551 1551 1552 1552 1552 1552 1552 1551 1551 1550 1550 1551 1552 1553 1554 1555 1555 1555 1554 1553 1553 1552 1551 1551 1552 1552 1551 1550 1549 1549 1549 1548 1548 1547 1547 1547 1547
1508 1509 1511 1511 1512 1515 1517 1518 1518 1521 1525 1527 1528 1530 1532 1533 1534 1535 1535 1536 1537 1537 1538 1538 1538 1539 1539 1539 1540 1542 1543 1544 1545 1547 1548 1549 1549 1549 1549 1549 1549 1550 1550 1550 1550 1549 1549 1549 1549 1549 1549 1549 1550 1550 1549 1549 1548 1548 1548 1549 1550 1551 1552 1553 1553 1553 1552 1551 1550 1549 1549 1549 1550 1550 1550 1549 1548 1548 1547 1547 1546 1546 1546 1545 1545
1504 1506 1508 1510 1512 1514 1515 1515 1517 1521 1525 1527 1528 1530 1530 1531 1532 1533 1534 1534 1534 1534 1535 1536 1535 1536 1536 1537 1537 1539 1541 1542 1543 1545 1546 1547 1547 1547 1548 1547 1547 1548 1547 1547 1547 1547 1547 1547 1547 1547 1547 1547 1547 1547 1547 1547 1547 1546 1546 1548 1549 1549 1549 1550 1550 1550 1549 1549 1548 1548 1548 1549 1549 1549 1549 1548 1548 1547 1546 1546 1545 1545 1545 1544 1544
1503 1504 1505 1507 1510 1511 1512 1514 1518 1521 1524 1525 1527 1528 1528 1529 1531 1531 1532 1531 1532 1532 1533 1533 1532 1532 1533 1534 1535 1536 1538 1539 1541 1542 1544 1545 1545 1546 1546 1546 1546 1546 1545 1545 1545 1545 1545 1545 1545 1545 1545 1545 1545 1545 1544 1545 1544 1544 1545 1546 1546 1546 1547 1548 1548 1548 1549 1550 1549 1547 1547 1548 1549 1549 1549 1548 1547 1547 1546 1546 1546 1545 1545 1544 1543
1504 1503 1504 1506 1508 1510 1512 1514 1517 1520 1522 1523 1524 1525 1526 1527 1529 1530 1530 1529 1530 1530 1531 1530 1529 1529 1530 1531 1532 1534 1536 1537 1539 1540 1541 1543 1543 1544 1544 1544 1544 1544 1544 1544 1544 1544 1544 1543 1543 1543 1543 1543 1542 1542 1542 1542 1542 1542 1543 1543 1543 1544 1545 1546 1547 1549 1550 1550 1548 1547 1547 1548 1548 1549 1549 1548 1547 1547 1547 1546 1546 1546 1545 1544 1543
1505 1504 1505 1506 1507 1510 1512 1514 1517 1519 1521 1521 1522 1522 1524 1526 1528 1528 1528 1528 1528 1528 1528 1527 1527 1526 1527 1529 1531 1533 1534 1535 1537 1538 1539 1541 1542 1542 1543 1543 1543 1543 1543 1543 1543 1542 1542 1541 1541 1541 1541 1541 1540 1540 1541 1541 1541 1540 1541 1542 1542 1542 1544 1546 1547 1549 1549 1549 1548 1547 1547 1548 1548 1548 1549 1548 1548 1548 1548 1547 1547 1546 1545 1544 1544
1505 1506 1507 1508 1509 1511 1513 1515 1518 1519 1520 1520 1521 1521 1523 1525 1526 1526 1525 1525 1526 1525 1524 1524 1525 1525 1526 1528 1530 1531 1532 1533 1534 1536 1537 1538 1540 1541 1542 1543 1543 1542 1542 1542 1541 1541 1541 1540 1540 1539 1539 1539 1539 1538 1539 1540 1541 1541 1541 1541 1542 1543 1544 1546 1547 1549 1549 1548 1548 1548 1548 1548 1549 1549 1549 1549 1548 1548 1548 1548 1548 1547 1545 1544 1544
1506 1507 1508 1509 1511 1513 1514 1516 1518 1519 1520 1520 1521 1522 1523 1523 1523 1523 1523 1523 1523 1522 1521 1522 1524 1525 1526 1527 1529 1530 1530 1531 1533 1534 1535 1536 1538 1539 1541 1542 1541 1541 1541 1540 1540 1540 1539 1539 1538 1538 1538 1538 1538 1538 1538 1539 1541 1541 1541 1541 1542 1543 1544 1545 1546 1548 1548 1548 1548 1549 1549 1549 1549 1549 1549 1549 1549 1549 1549 1548 1548 1547 1546 1545 1544
1508 1508 1509 1510 1511 1513 1515 1516 1518 1518 1519 1520 1520 1521 1521 1521 1521 1521 1521 1522 1522 1522 1521 1522 1524 1525 1526 1527 1528 1529 1530 1531 1531 1532 1533 1534 1536 1537 1538 1539 1539 1539 1539 1538 1538 1538 1538 1537 1537 1537 1537 1537 1538 1538 1539 1540 1542 1542 1542 1542 1543 1544 1545 1545 1546 1547 1548 1548 1549 1549 1549 1549 1549 1549 1550 1549 1549 1549 1549 1548 1548 1547 1546 1546 1545
1509 1510 1510 1511 1512 1514 1515 1516 1517 1518 1518 1519 1519 1519 1519 1520 1520 1521 1521 1522 1522 1522 1522 1523 1524 1525 1526 1527 1528 1528 1529 1530 1530 1531 1532 1533 1534 1535 1536 1536 1536 1537 1537 1537 1537 1537 1537 1537 1537 1537 1537 1537 1538 1539 1540 1541 1542 1542 1543 1544 1544 1545 1546 1546 1547 1548 1548 1549 1549 1549 1549 1549 1550 1550 1549 1549 1549 1549 1548 1548 1547 1547 1547 1546 1545
1511 1511 1512 1513 1514 1514 1515 1516 1516 1517 1517 1518 1518 1519 1519 1519 1520 1521 1522 1522 1522 1522 1523 1523 1524 1525 1526 1527 1528 1528 1529 1529 1530 1530 1531 1531 1532 1533 1534 1534 1535 1535 1535 1536 1536 1536 1536 1537 1537 1537 1538 1538 1539 1540 1541 1542 1543 1544 1544 1545 1545 1546 1546 1547 1548 1548 1549 1549 1549 1550 1550 1550 1550 1550 1549 1549 1549 1548 1548 1548 1547 1547 1546 1546 1545
1512 1513 1513 1514 1515 1515 1515 1516 1516 1516 1517 1517 1518 1519 1519 1520 1520 1521 1521 1522 1522 1523 1523 1524 1525 1526 1526 1527 1528 1528 1529 1529 1530 1531 1531 1531 1532 1532 1533 1534 1534 1534 1535 1535 1536 1536 1537 1537 1538 1538 1539 1540 1540 1541 1542 1543 1544 1545 1545 1546 1546 1546 1547 1548 1548 1549 1549 1550 1550 1550 1550 1550 1550 1550 1549 1549 1549 1548 1548 1548 1547 1546 1546 1545 1545
1513 1514 1514 1515 1516 1516 1516 1516 1516 1516 1517 1518 1519 1520 1520 1521 1521 1521 1522 1523 1523 1524 1525 1526 1526 1527 1527 1528 1529 1529 1530 1530 1531 1531 1531 1531 1532 1533 1534 1535 1535 1535 1535 1535 1536 1537 1537 1538 1539 1539 1540 1541 1542 1543 1544 1544 1545 1545 1546 1546 1547 1547 1548 1549 1549 1550 1550 1550 1550 1550 1550 1550 1550 1550 1550 1549 1549 1548 1548 1547 1547 1546 1545 1545 1544
1515 1515 1516 1517 1518 1518 1518 1518 1518 1518 1519 1520 1521 1522 1522 1522 1523 1523 1524 1524 1525 1526 1526 1527 1528 1528 1529 1529 1530 1530 1531 1531 1531 1531 1531 1532 1533 1534 1535 1535 1536 1536 1536 1537 1537 1538 1538 1539 1539 1540 1541 1542 1543 1544 1545 1545 1546 1546 1547 1547 1547 1548 1548 1549 1549 1550 1550 1550 1550 1550 1550 1550 1550 1550 1550 1549 1549 1548 1547 1547 1546 1545 1545 1544 1543
1517 1518 1519 1519 1519 1520 1520 1520 1521 1521 1521 1522 1523 1523 1524 1524 1525 1525 1525 1526 1526 1527 1527 1528 1529 1529 1530 1530 1530 1530 1531 1531 1531 1532 1532 1533 1534 1535 1535 1536 1537 1537 1538 1538 1539 1539 1539 1540 1541 1542 1542 1543 1544 1545 1545 1546 1546 1546 1547 1547 1548 1548 1548 1549 1549 1550 1550 1550 1550 1550 1550 1550 1550 1550 1549 1549 1548 1547 1547 1546 1546 1545 1544 1543 1542
1520 1520 1521 1521 1521 1522 1522 1522 1523 1523 1524 1525 1525 1526 1526 1527 1527 1527 1528 1528 1528 1529 1529 1529 1530 1530 1530 1531 1531 1531 1531 1532 1532 1532 1533 1533 1534 1535 1536 1537 1538 1539 1539 1540 1540 1540 1541 1542 1542 1543 1543 1544 1544 1545 1545 1545 1545 1546 1546 1547 1547 1548 1548 1549 1549 1549 1550 1550 1550 1550 1550 1550 1549 1549 1549 1548 1547 1547 1546 1545 1545 1544 1543 1542 1541
1521 1522 1522 1523 1523 1523 1524 1524 1525 1525 1526 1527 1527 1528 1529 1529 1529 1530 1530 1530 1530 1530 1530 1531 1531 1531 1532 1532 1532 1532 1533 1533 1533 1534 1534 1534 1535 1536 1537 1538 1539 1540 1540 1541 1541 1541 1542 1542 1542 1543 1544 1544 1544 1544 1544 1544 1545 1545 1546 1546 1547 1548 1549 1549 1549 1549 1549 1549 1549 1549 1549 1549 1548 1548 1548 1547 1547 1546 1545 1545 1544 1543 1542 1541 1540
1523 1524 1524 1524 1525 1525 1525 1526 1526 1527 1527 1528 1529 1530 1530 1531 1531 1532 1532 1532 1532 1532 1532 1532 1532 1533 1533 1533 1533 1534 1534 1534 1535 1535 1535 1536 1536 1537 1537 1538 1539 1540 1541 1541 1542 1542 1542 1542 1543 1543 1543 1544 1544 1544 1544 1545 1545 1546 1546 1547 1548 1548 1549 1549 1549 1548 1548 1548 1549 1549 1548 1548 1548 1547 1547 1546 1546 1545 1545 1544 1543 1542 1541 1541 1539
1526 1526 1525 1526 1526 1527 1527 1528 1528 1528 1529 1529 1530 1531 1532 1532 1533 1533 1533 1534 1534 1534 1534 1534 1534 1534 1534 1534 1535 1535 1535 1535 1536 1536 1536 1537 1537 1537 1538 1539 1540 1540 1541 1541 1542 1542 1543 1543 1543 1544 1544 1544 1545 1545 1545 1546 1546 1547 1548 1548 1548 1548 1548 1548 1548 1548 1548 1548 1548 1548 1548 1547 1547 1547 1546 1546 1545 1545 1544 1543 1542 1541 1540 1540 1538
1528 1528 1527 1528 1528 1528 1529 1530 1530 1530 1530 1531 1531 1532 1532 1533 1533 1534 1534 1535 1535 1535 1536 1536 1536 1536 1536 1536 1536 1536 1536 1536 1537 1537 1537 1538 1538 1538 1539 1539 1540 1541 1541 1541 1542 1542 1543 1543 1544 1544 1545 1545 1546 1546 1546 1547 1547 1547 1548 1548 1548 1548 1548 1548 1547 1547 1547 1547 1547 1547 1547 1547 1546 1546 1545 1545 1544 1543 1543 1542 1541 1540 1539 1538 1537
1529 1529 1529 1529 1529 1530 1530 1530 1531 1531 1531 1532 1532 1532 1533 1533 1534 1534 1535 1535 1536 1536 1536 1536 1537 1537 1537 1537 1537 1537 1537 1537 1538 1538 1538 1539 1539 1539 1540 1540 1541 1541 1541 1542 1542 1542 1543 1543 1544 1544 1545 1545 1546 1546 1546 1546 1547 1547 1547 1547 1547 1547 1548 1547 1547 1547 1547 1547 1547 1546 1546 1546 1545 1545 1544 1544 1543 1542 1541 1540 1540 1539 1538 1537 1535
1530 1530 1530 1530 1530 1530 1530 1531 1531 1531 1532 1532 1533 1533 1533 1534 1534 1534 1535 1535 1535 1536 1536 1536 1537 1537 1537 1537 1538 1538 1538 1538 1538 1538 1539 1539 1540 1540 1541 1541 1541 1542 1542 1542 1542 1543 1543 1543 1544 1544 1545 1545 1545 1545 1546 1546 1546 1546 1546 1547 1547 1547 1547 1547 1546 1546 1546 1546 1546 1545 1545 1545 1544 1544 1543 1542 1542 1541 1540 1539 1538 1537 1536 1535 1534
1530 1530 1530 1530 1531 1531 1531 1531 1531 1531 1532 1532 1533 1533 1534 1534 1534 1534 1535 1535 1535 1535 1535 1536 1536 1536 1537 1537 1538 1538 1538 1539 1539 1539 1539 1540 1540 1541 1541 1541 1542 1542 1542 1542 1543 1543 1543 1543 1544 1544 1544 1544 1545 1545 1545 1545 1545 1545 1545 1546 1546 1546 1546 1545 1545 1545 1545 1545 1545 1544 1544 1543 1543 1542 1542 1541 1540 1539 1538 1538 1537 1536 1535 1534 1533
1530 1530 1530 1530 1531 1531 1531 1531 1531 1531 1532 1533 1533 1533 1534 1534 1534 1535 1535 1535 1535 1535 1535 1535 1536 1536 1537 1537 1537 1538 1538 1539 1539 1539 1540 1540 1540 1541 1541 1541 1542 1542 1542 1543 1542 1543 1543 1543 1543 1544 1544 1544 1544 1544 1544 1545 1545 1545 1545 1545 1545 1545 1545 1545 1545 1544 1544 1544 1544 1544 1543 1542 1542 1541 1540 1539 1539 1538 1537 1536 1536 1535 1534 1533 1532
1530 1530 1530 1531 1531 1531 1531 1531 1531 1532 1532 1532 1533 1533 1533 1533 1534 1534 1534 1534 1534 1534 1534 1535 1535 1535 1536 1536 1537 1537 1538 1538 1539 1539 1539 1539 1540 1540 1540 1541 1541 1542 1542 1542 1542 1542 1542 1543 1543 1543 1543 1543 1543 1543 1544 1544 1544 1544 1545 1544 1544 1544 1544 1544 1544 1544 1544 1544 1543 1543 1542 1541 1540 1539 1539 1538 1537 1536 1536 1535 1535 1534 1533 1533 1531
1530 1530 1530 1530 1530 1531 1531 1531 1531 1532 1532 1532 1533 1533 1533 1533 1533 1533 1534 1534 1534 1534 1534 1534 1534 1535 1535 1536 1536 1536 1537 1537 1538 1539 1539 1539 1539 1539 1539 1540 1540 1541 1541 1541 1541 1541 1541 1542 1542 1542 1542 1542 1542 1542 1542 1543 1543 1544 1544 1544 1544 1544 1544 1544 1543 1543 1543 1543 1542 1541 1541 1540 1539 1539 1538 1537 1536 1536 1535 1535 1534 1533 1532 1532 1531
1529 1529 1530 1530 1530 1531 1531 1531 1531 1532 1532 1532 1533 1532 1532 1533 1533 1533 1533 1533 1533 1533 1533 1533 1534 1534 1535 1535 1535 1536 1536 1537 1537 1538 1538 1538 1538 1538 1539 1539 1539 1540 1540 1540 1541 1541 1541 1541 1541 1541 1541 1541 1541 1541 1542 1542 1542 1543 1543 1543 1543 1543 1543 1543 1542 1542 1542 1541 1541 1540 1540 1539 1538 1537 1536 1536 1535 1534 1534 1533 1532 1532 1531 1530 1529
1529 1529 1529 1530 1530 1530 1530 1531 1531 1531 1532 1532 1532 1532 1532 1532 1532 1532 1532 1532 1532 1532 1532 1533 1533 1534 1534 1534 1535 1535 1536 1536 1537 1537 1537 1537 1537 1538 1538 1538 1539 1539 1540 1540 1540 1540 1540 1540 1540 1540 1540 1541 1541 1541 1541 1541 1542 1542 1542 1542 1542 1542 1542 1541 1541 1541 1540 1540 1539 1539 1538 1538 1537 1536 1535 1534 1533 1532 1531 1531 1530 1529 1529 1528 1528
1528 1528 1529 1529 1530 1530 1530 1531 1531 1531 1531 1532 1532 1532 1532 1532 1532 1532 1532 1532 1532 1532 1532 1532 1533 1533 1534 1534 1534 1534 1535 1536 1536 1536 1537 1537 1537 1537 1538 1538 1538 1539 1539 1539 1539 1539 1539 1539 1539 1539 1539 1539 1539 1540 1540 1540 1540 1541 1541 1541 1541 1541 1540 1540 1540 1539 1539 1539 1538 1538 1537 1536 1536 1535 1533 1532 1531 1530 1530 1529 1529 1528 1528 1527 1526
1528 1528 1529 1530 1530 1530 1531 1531 1531 1531 1531 1531 1531 1531 1531 1531 1531 1531 1531 1531 1531 1531 1531 1531 1532 1532 1533 1533 1534 1534 1535 1535 1535 1536 1536 1537 1537 1537 1537 1537 1538 1538 1538 1538 1538 1537 1537 1537 1537 1537 1538 1538 1538 1538 1538 1539 1539 1540 1540 1540 1540 1539 1539 1539 1538 1538 1538 1537 1536 1536 1535 1534 1533 1532 1531 1530 1529 1529 1528 1528 1528 1527 1527 1526 1525
1528 1529 1529 1530 1530 1530 1530 1531 1531 1531 1531 1531 1531 1531 1531 1530 1530 1530 1530 1531 1531 1531 1531 1531 1531 1532 1532 1533 1533 1534 1535 1535 1535 1536 1536 1536 1536 1536 1536 1536 1537 1537 1536 1536 1536 1536 1536 1536 1536 1536 1537 1537 1537 1537 1537 1538 1538 1538 1538 1538 1538 1538 1538 1537 1537 1536 1536 1535 1534 1533 1532 1531 1530 1530 1529 1529 1528 1528 1528 1528 1527 1526 1526 1525 1524
1528 1528 1529 1529 1530 1530 1530 1530 1531 1531 1531 1531 1530 1530 1530 1530 1530 1529 1529 1530 1530 1530 1530 1531 1531 1532 1532 1533 1533 1534 1534 1535 1535 1535 1535 1535 1535 1535 1535 1535 1535 1535 1535 1535 1535 1535 1535 1535 1535 1535 1536 1536 1536 1537 1537 1537 1537 1537 1537 1537 1537 1536 1536 1536 1535 1535 1534 1533 1532 1531 1530 1529 1529 1528 1528 1528 1528 1528 1527 1527 1526 1525 1525 1524 1523
1528 1528 1529 1529 1529 1529 1529 1530 1530 1530 1530 1530 1529 1529 1529 1529 1529 1529 1529 1529 1530 1530 1530 1531 1531 1532 1532 1532 1533 1533 1533 1534 1534 1534 1533 1533 1533 1533 1533 1534 1534 1533 1534 1534 1534 1534 1534 1534 1534 1535 1535 1536 1536 1536 1536 1536 1536 1536 1536 1536 1535 1535 1535 1534 1534 1533 1532 1531 1530 1529 1528 1528 1528 1528 1528 1528 1528 1527 1527 1526 1525 1524 1524 1522 1521